| time (UTC) | temp F | wind direction | speed MPH | gust MPH | rain 1hr in | rain 24hr in | rain mn in | humidity % | barometer mb |
| 20260902002135 | 71 | 250 | 1.0 | 3.0 | 0.00 | 0.00 | 0.00 | 77 | 1019.7 |
| 20260902001136 | 72 | 35 | 0.0 | 0.0 | 0.00 | 0.00 | 0.00 | 76 | 1019.7 |
| 20260902000157 | 72 | 35 | 0.0 | 2.0 | 0.00 | 0.00 | 0.00 | 75 | 1019.6 |
| 20260901235142 | 73 | 65 | 0.0 | 4.0 | 0.00 | 0.00 | 0.00 | 74 | 1019.6 |
| 20260901234204 | 73 | 53 | 1.0 | 4.0 | 0.00 | 0.00 | 0.00 | 73 | 1019.6 |
| 20260901233124 | 73 | 113 | 1.0 | 5.0 | 0.00 | 0.00 | 0.00 | 72 | 1019.7 |
| 20260901232144 | 73 | 51 | 1.0 | 4.0 | 0.00 | 0.00 | 0.00 | 72 | 1019.7 |
| 20260901231125 | 73 | 128 | 0.0 | 3.0 | 0.00 | 0.00 | 0.00 | 73 | 1019.6 |
| 20260901230125 | 73 | 146 | 1.0 | 4.0 | 0.00 | 0.00 | 0.00 | 74 | 1019.7 |
| 20260901225125 | 73 | 157 | 1.0 | 3.0 | 0.00 | 0.00 | 0.00 | 74 | 1019.6 |
| 20260901224205 | 73 | 165 | 1.0 | 3.0 | 0.00 | 0.00 | 0.00 | 74 | 1019.8 |
| 20260901223137 | 73 | 19 | 1.0 | 4.0 | 0.00 | 0.00 | 0.00 | 75 | 1019.7 |
| 20260901222137 | 73 | 294 | 0.0 | 3.0 | 0.00 | 0.00 | 0.00 | 75 | 1019.6 |
| 20260901221145 | 72 | 130 | 0.0 | 3.0 | 0.00 | 0.00 | 0.00 | 76 | 1019.6 |
| 20260901220136 | 73 | 59 | 0.0 | 3.0 | 0.00 | 0.00 | 0.00 | 75 | 1019.6 |
| 20260901215134 | 73 | 49 | 0.0 | 2.0 | 0.00 | 0.00 | 0.00 | 75 | 1019.6 |
| 20260901214135 | 73 | 99 | 1.0 | 3.0 | 0.00 | 0.00 | 0.00 | 75 | 1019.7 |
| 20260901213141 | 73 | 153 | 1.0 | 6.0 | 0.00 | 0.00 | 0.00 | 75 | 1019.6 |
| 20260901212139 | 73 | 54 | 0.0 | 3.0 | 0.00 | 0.00 | 0.00 | 75 | 1019.6 |
| 20260901211138 | 72 | 50 | 0.0 | 4.0 | 0.00 | 0.00 | 0.00 | 78 | 1019.6 |
| 20260901210136 | 71 | 225 | 0.0 | 2.0 | 0.00 | 0.00 | 0.00 | 81 | 1019.7 |
| 20260901205133 | 71 | 225 | 0.0 | 2.0 | 0.00 | 0.00 | 0.00 | 82 | 1019.7 |
| 20260901204203 | 71 | 225 | 0.0 | 3.0 | 0.00 | 0.00 | 0.00 | 82 | 1019.7 |
| 20260901203133 | 71 | 225 | 1.0 | 2.0 | 0.00 | 0.00 | 0.00 | 80 | 1019.6 |
| 20260901202146 | 72 | 226 | 0.0 | 3.0 | 0.00 | 0.00 | 0.00 | 80 | 1019.6 |
| 20260901201142 | 71 | 238 | 1.0 | 5.0 | 0.00 | 0.00 | 0.00 | 80 | 1019.6 |
| 20260901200159 | 73 | 88 | 1.0 | 2.0 | 0.00 | 0.00 | 0.00 | 78 | 1019.4 |
| 20260901195138 | 74 | 86 | 0.0 | 2.0 | 0.00 | 0.00 | 0.00 | 76 | 1019.5 |
| 20260901194137 | 75 | 86 | 0.0 | 3.0 | 0.00 | 0.00 | 0.00 | 74 | 1019.3 |
| 20260901193134 | 75 | 114 | 0.0 | 2.0 | 0.00 | 0.00 | 0.00 | 74 | 1019.3 |
| 20260901192148 | 75 | 117 | 1.0 | 2.0 | 0.00 | 0.00 | 0.00 | 74 | 1019.2 |
| 20260901191203 | 75 | 100 | 0.0 | 3.0 | 0.00 | 0.00 | 0.00 | 76 | 1019.1 |
| 20260901190159 | 74 | 230 | 0.0 | 1.0 | 0.00 | 0.00 | 0.00 | 76 | 1019.0 |
| 20260901185129 | 74 | 230 | 0.0 | 3.0 | 0.00 | 0.00 | 0.00 | 78 | 1018.9 |
| 20260901184146 | 74 | 230 | 0.0 | 2.0 | 0.00 | 0.00 | 0.00 | 78 | 1018.8 |
| 20260901183134 | 74 | 228 | 0.0 | 1.0 | 0.00 | 0.00 | 0.00 | 79 | 1018.6 |
| 20260901182207 | 75 | 228 | 1.0 | 2.0 | 0.00 | 0.00 | 0.00 | 78 | 1018.5 |
| 20260901181137 | 75 | 228 | 0.0 | 1.0 | 0.00 | 0.00 | 0.00 | 76 | 1018.6 |
| 20260901180159 | 76 | 228 | 0.0 | 3.0 | 0.00 | 0.00 | 0.00 | 76 | 1018.6 |
| 20260901175136 | 76 | 228 | 0.0 | 0.0 | 0.00 | 0.00 | 0.00 | 73 | 1018.5 |
| 20260901174133 | 77 | 228 | 0.0 | 1.0 | 0.00 | 0.00 | 0.00 | 75 | 1018.5 |
| 20260901173131 | 77 | 228 | 0.0 | 1.0 | 0.00 | 0.00 | 0.00 | 75 | 1018.3 |
| 20260901172133 | 78 | 228 | 0.0 | 3.0 | 0.00 | 0.00 | 0.00 | 71 | 1018.3 |
| 20260901171130 | 79 | 228 | 0.0 | 1.0 | 0.00 | 0.00 | 0.00 | 71 | 1018.2 |
| 20260901170149 | 79 | 228 | 0.0 | 1.0 | 0.00 | 0.00 | 0.00 | 68 | 1018.2 |
| 20260901165148 | 79 | 228 | 0.0 | 2.0 | 0.00 | 0.00 | 0.00 | 68 | 1018.3 |
| 20260901164148 | 80 | 228 | 0.0 | 4.0 | 0.00 | 0.00 | 0.00 | 70 | 1018.3 |
| 20260901163149 | 81 | 217 | 0.0 | 0.0 | 0.00 | 0.00 | 0.00 | 65 | 1018.3 |
| 20260901162208 | 81 | 217 | 0.0 | 0.0 | 0.00 | 0.00 | 0.00 | 61 | 1018.3 |
| 20260901161145 | 81 | 217 | 0.0 | 0.0 | 0.00 | 0.00 | 0.00 | 60 | 1018.3 |
| 20260901160141 | 80 | 217 | 0.0 | 2.0 | 0.00 | 0.00 | 0.00 | 63 | 1018.3 |
| 20260901155159 | 80 | 217 | 0.0 | 3.0 | 0.00 | 0.00 | 0.00 | 66 | 1018.5 |
| 20260901154139 | 80 | 217 | 1.0 | 2.0 | 0.00 | 0.00 | 0.00 | 65 | 1018.4 |
| 20260901153137 | 81 | 217 | 0.0 | 1.0 | 0.00 | 0.00 | 0.00 | 63 | 1018.5 |
| 20260901152136 | 81 | 217 | 0.0 | 2.0 | 0.00 | 0.00 | 0.00 | 61 | 1018.4 |
| 20260901151136 | 82 | 217 | 0.0 | 2.0 | 0.00 | 0.00 | 0.00 | 62 | 1018.5 |
| 20260901150136 | 83 | 232 | 0.0 | 3.0 | 0.00 | 0.00 | 0.00 | 60 | 1018.5 |
| 20260901145133 | 83 | 232 | 1.0 | 5.0 | 0.00 | 0.00 | 0.00 | 59 | 1018.5 |
| 20260901144131 | 83 | 123 | 0.0 | 3.0 | 0.00 | 0.00 | 0.00 | 59 | 1018.6 |
| 20260901143210 | 83 | 128 | 0.0 | 2.0 | 0.00 | 0.00 | 0.00 | 60 | 1018.6 |
| 20260901142147 | 83 | 95 | 2.0 | 3.0 | 0.00 | 0.00 | 0.00 | 62 | 1018.7 |
| 20260901141150 | 83 | 19 | 0.0 | 3.0 | 0.00 | 0.00 | 0.00 | 64 | 1018.8 |
| 20260901140146 | 82 | 17 | 3.0 | 5.0 | 0.00 | 0.00 | 0.00 | 64 | 1018.8 |
| 20260901135142 | 82 | 25 | 2.0 | 4.0 | 0.00 | 0.00 | 0.00 | 66 | 1018.8 |
| 20260901134141 | 81 | 22 | 3.0 | 6.0 | 0.00 | 0.00 | 0.00 | 66 | 1018.9 |
| 20260901133141 | 81 | 23 | 0.0 | 4.0 | 0.00 | 0.00 | 0.00 | 62 | 1018.9 |
| 20260901132204 | 81 | 101 | 0.0 | 6.0 | 0.00 | 0.00 | 0.00 | 61 | 1019.0 |
| 20260901131139 | 81 | 44 | 0.0 | 3.0 | 0.00 | 0.00 | 0.00 | 62 | 1019.0 |
| 20260901130158 | 81 | 46 | 1.0 | 5.0 | 0.00 | 0.00 | 0.00 | 66 | 1019.1 |
| 20260901125154 | 81 | 63 | 1.0 | 4.0 | 0.00 | 0.00 | 0.00 | 63 | 1019.2 |
| 20260901124129 | 82 | 60 | 2.0 | 4.0 | 0.00 | 0.00 | 0.00 | 61 | 1019.4 |
| 20260901123135 | 82 | 26 | 1.0 | 5.0 | 0.00 | 0.00 | 0.00 | 65 | 1019.4 |
| 20260901122136 | 81 | 27 | 0.0 | 5.0 | 0.00 | 0.00 | 0.00 | 64 | 1019.4 |
| 20260901121137 | 81 | 71 | 1.0 | 3.0 | 0.00 | 0.00 | 0.00 | 63 | 1019.5 |
| 20260901120138 | 81 | 71 | 0.0 | 4.0 | 0.00 | 0.00 | 0.00 | 60 | 1019.5 |
| 20260901115200 | 81 | 296 | 1.0 | 4.0 | 0.00 | 0.00 | 0.00 | 65 | 1019.6 |
| 20260901114145 | 80 | 102 | 2.0 | 6.0 | 0.00 | 0.00 | 0.00 | 63 | 1019.6 |
| 20260901113204 | 80 | 35 | 1.0 | 3.0 | 0.00 | 0.00 | 0.00 | 63 | 1019.7 |
| 20260901112125 | 81 | 34 | 1.0 | 4.0 | 0.00 | 0.00 | 0.00 | 61 | 1019.8 |
| 20260901111127 | 80 | 76 | 2.0 | 5.0 | 0.00 | 0.00 | 0.00 | 68 | 1019.9 |
| 20260901110133 | 81 | 42 | 2.0 | 4.0 | 0.00 | 0.00 | 0.00 | 62 | 1020.0 |
| 20260901105134 | 80 | 72 | 1.0 | 4.0 | 0.00 | 0.00 | 0.00 | 61 | 1019.9 |
| 20260901104135 | 80 | 88 | 2.0 | 5.0 | 0.00 | 0.00 | 0.00 | 62 | 1020.1 |
| 20260901103137 | 79 | 123 | 1.0 | 8.0 | 0.00 | 0.00 | 0.00 | 61 | 1020.1 |
| 20260901102143 | 80 | 40 | 2.0 | 8.0 | 0.00 | 0.00 | 0.00 | 58 | 1020.1 |
| 20260901101144 | 80 | 108 | 1.0 | 4.0 | 0.00 | 0.00 | 0.00 | 59 | 1020.1 |
| 20260901100144 | 79 | 114 | 1.0 | 5.0 | 0.00 | 0.00 | 0.00 | 56 | 1020.1 |
| 20260901095126 | 79 | 32 | 1.0 | 5.0 | 0.00 | 0.00 | 0.00 | 55 | 1020.2 |
| 20260901094132 | 79 | 32 | 3.0 | 4.0 | 0.00 | 0.00 | 0.00 | 49 | 1020.2 |
| 20260901093134 | 80 | 28 | 3.0 | 5.0 | 0.00 | 0.00 | 0.00 | 47 | 1020.3 |
| 20260901092158 | 80 | 13 | 3.0 | 5.0 | 0.00 | 0.00 | 0.00 | 47 | 1020.3 |
| 20260901091139 | 79 | 38 | 3.0 | 6.0 | 0.00 | 0.00 | 0.00 | 47 | 1020.2 |
| 20260901090139 | 79 | 38 | 2.0 | 6.0 | 0.00 | 0.00 | 0.00 | 49 | 1020.1 |
| 20260901085145 | 78 | 27 | 3.0 | 5.0 | 0.00 | 0.00 | 0.00 | 49 | 1020.1 |
| 20260901084129 | 77 | 29 | 1.0 | 4.0 | 0.00 | 0.00 | 0.00 | 51 | 1019.9 |
| 20260901083151 | 76 | 29 | 2.0 | 5.0 | 0.00 | 0.00 | 0.00 | 51 | 1019.8 |
| 20260901082131 | 75 | 34 | 1.0 | 5.0 | 0.00 | 0.00 | 0.00 | 53 | 1019.8 |
| 20260901081154 | 75 | 21 | 2.0 | 5.0 | 0.00 | 0.00 | 0.00 | 53 | 1019.8 |
| 20260901080139 | 75 | 351 | 1.0 | 4.0 | 0.00 | 0.00 | 0.00 | 56 | 1019.7 |
| 20260901075141 | 75 | 355 | 2.0 | 4.0 | 0.00 | 0.00 | 0.00 | 57 | 1019.6 |
| 20260901074141 | 75 | 30 | 1.0 | 5.0 | 0.00 | 0.00 | 0.00 | 52 | 1019.5 |
| 20260901073143 | 74 | 50 | 1.0 | 5.0 | 0.00 | 0.00 | 0.00 | 57 | 1019.6 |
| 20260901072129 | 73 | 38 | 2.0 | 6.0 | 0.00 | 0.00 | 0.00 | 54 | 1019.4 |
| 20260901071151 | 73 | 43 | 2.0 | 6.0 | 0.00 | 0.00 | 0.00 | 55 | 1019.3 |
| 20260901070132 | 72 | 349 | 1.0 | 3.0 | 0.00 | 0.00 | 0.00 | 54 | 1019.3 |
| 20260901065133 | 71 | 315 | 0.0 | 1.0 | 0.00 | 0.00 | 0.00 | 52 | 1019.2 |
| 20260901064138 | 71 | 277 | 0.0 | 3.0 | 0.00 | 0.00 | 0.00 | 53 | 1019.2 |
| 20260901063139 | 71 | 90 | 0.0 | 2.0 | 0.00 | 0.00 | 0.00 | 63 | 1019.1 |
| 20260901062143 | 70 | 90 | 1.0 | 2.0 | 0.00 | 0.00 | 0.00 | 56 | 1018.9 |
| 20260901061142 | 69 | 90 | 0.0 | 1.0 | 0.00 | 0.00 | 0.00 | 58 | 1018.9 |
| 20260901060205 | 69 | 90 | 0.0 | 1.0 | 0.00 | 0.00 | 0.00 | 66 | 1018.6 |
| 20260901055128 | 69 | 90 | 0.0 | 1.0 | 0.00 | 0.00 | 0.00 | 60 | 1018.5 |
| 20260901054130 | 68 | 90 | 0.0 | 2.0 | 0.00 | 0.00 | 0.00 | 60 | 1018.3 |
| 20260901053130 | 68 | 90 | 0.0 | 2.0 | 0.00 | 0.00 | 0.00 | 61 | 1018.2 |
| 20260901052130 | 68 | 90 | 0.0 | 4.0 | 0.00 | 0.00 | 0.00 | 58 | 1018.0 |
| 20260901051136 | 68 | 98 | 0.0 | 0.0 | 0.00 | 0.00 | 0.00 | 59 | 1017.9 |
| 20260901050136 | 68 | 98 | 0.0 | 1.0 | 0.00 | 0.00 | 0.00 | 57 | 1017.9 |
| 20260901045137 | 69 | 98 | 0.0 | 1.0 | 0.00 | 0.00 | 0.00 | 55 | 1017.6 |
| 20260901044138 | 71 | 98 | 0.0 | 3.0 | 0.00 | 0.00 | 0.00 | 52 | 1017.5 |
| 20260901043143 | 71 | 47 | 0.0 | 8.0 | 0.00 | 0.00 | 0.00 | 49 | 1017.3 |
| 20260901042145 | 71 | 134 | 1.0 | 7.0 | 0.00 | 0.00 | 0.00 | 48 | 1017.2 |
| 20260901041128 | 71 | 180 | 1.0 | 5.0 | 0.00 | 0.00 | 0.00 | 48 | 1017.0 |
| 20260901040127 | 71 | 17 | 2.0 | 9.0 | 0.00 | 0.00 | 0.00 | 48 | 1017.0 |
| 20260901035133 | 71 | 57 | 1.0 | 8.0 | 0.00 | 0.00 | 0.00 | 49 | 1016.8 |
| 20260901034135 | 71 | 53 | 1.0 | 3.0 | 0.00 | 0.00 | 0.00 | 49 | 1016.8 |
| 20260901033137 | 71 | 184 | 0.0 | 4.0 | 0.00 | 0.00 | 0.00 | 51 | 1016.8 |
| 20260901032139 | 71 | 360 | 1.0 | 4.0 | 0.00 | 0.00 | 0.00 | 52 | 1016.7 |
| 20260901031142 | 71 | 190 | 1.0 | 5.0 | 0.00 | 0.00 | 0.00 | 52 | 1016.7 |
| 20260901030148 | 72 | 340 | 2.0 | 6.0 | 0.00 | 0.00 | 0.00 | 50 | 1016.7 |
| 20260901025149 | 72 | 5 | 1.0 | 5.0 | 0.00 | 0.00 | 0.00 | 49 | 1016.7 |
| 20260901024131 | 72 | 285 | 1.0 | 4.0 | 0.00 | 0.00 | 0.00 | 48 | 1016.7 |
| 20260901023133 | 72 | 100 | 1.0 | 5.0 | 0.00 | 0.00 | 0.00 | 48 | 1016.7 |
| 20260901022140 | 72 | 171 | 1.0 | 3.0 | 0.00 | 0.00 | 0.00 | 48 | 1016.8 |
| 20260901021142 | 72 | 111 | 1.0 | 5.0 | 0.00 | 0.00 | 0.00 | 49 | 1016.7 |
| 20260901020205 | 72 | 62 | 1.0 | 7.0 | 0.00 | 0.00 | 0.00 | 49 | 1016.7 |
| 20260901015205 | 72 | 5 | 1.0 | 4.0 | 0.00 | 0.00 | 0.00 | 50 | 1016.7 |
| 20260901014145 | 72 | 10 | 0.0 | 6.0 | 0.00 | 0.00 | 0.00 | 50 | 1016.7 |
| 20260901013128 | 71 | 10 | 1.0 | 5.0 | 0.00 | 0.00 | 0.00 | 52 | 1016.8 |
| 20260901012132 | 71 | 59 | 0.0 | 3.0 | 0.00 | 0.00 | 0.00 | 53 | 1016.8 |
| 20260901011135 | 71 | 57 | 0.0 | 2.0 | 0.00 | 0.00 | 0.00 | 55 | 1016.7 |
| 20260901010140 | 72 | 55 | 0.0 | 2.0 | 0.00 | 0.00 | 0.00 | 55 | 1016.7 |
| 20260901005128 | 72 | 185 | 0.0 | 3.0 | 0.00 | 0.00 | 0.00 | 50 | 1016.7 |
| 20260901004152 | 72 | 11 | 1.0 | 4.0 | 0.00 | 0.00 | 0.00 | 49 | 1016.6 |
| 20260901003134 | 73 | 32 | 0.0 | 3.0 | 0.00 | 0.00 | 0.00 | 51 | 1016.6 |